• In Belarus
  • List of Countries
  • For 7 days
  • Water Temperature
  • Satellite Maps
  • Weather Map
  • Weather Widgets
  • user-avatar
    Login

    Hourly Weather Al-Jadida

    Today, 22 September, Saturday

    Time Temperature Precipitation Wind Pressure Humidity
    00:00 +26°C° 0 mm 4 mps 761 mmHg 78%
    01:00 +25°C° 0 mm 3 mps 761 mmHg 78%
    02:00 +25°C° 0 mm 3 mps 761 mmHg 78%
    03:00 +25°C° 0 mm 3 mps 761 mmHg 79%
    04:00 +25°C° 0 mm 3 mps 761 mmHg 80%
    05:00 +24°C° 0 mm 2 mps 761 mmHg 83%
    06:00 +26°C° 0 mm 2 mps 761 mmHg 76%
    07:00 +27°C° 0 mm 2 mps 761 mmHg 70%
    08:00 +28°C° 0 mm 2 mps 761 mmHg 63%
    09:00 +30°C° 0 mm 3 mps 761 mmHg 56%
    10:00 +33°C° 0 mm 3 mps 761 mmHg 50%
    11:00 +35°C° 0 mm 3 mps 761 mmHg 43%
    12:00 +35°C° 0 mm 4 mps 761 mmHg 43%
    13:00 +36°C° 0 mm 5 mps 760 mmHg 42%
    14:00 +36°C° 0 mm 5 mps 760 mmHg 42%
    15:00 +35°C° 0 mm 5 mps 760 mmHg 45%
    16:00 +34°C° 0 mm 5 mps 760 mmHg 49%
    17:00 +32°C° 0 mm 5 mps 760 mmHg 52%
    18:00 +32°C° 0 mm 5 mps 761 mmHg 54%
    19:00 +30°C° 0 mm 5 mps 761 mmHg 55%
    20:00 +29°C° 0 mm 5 mps 761 mmHg 57%
    21:00 +29°C° 0 mm 4 mps 761 mmHg 57%
    22:00 +29°C° 0 mm 4 mps 761 mmHg 56%
    23:00 +29°C° 0 mm 4 mps 761 mmHg 56%

    Tomorrow, 23 September, Sunday

    Time Temperature Precipitation Wind Pressure Humidity
    00:00 +28°C° 0 mm 3 mps 761 mmHg 56%
    01:00 +28°C° 0 mm 3 mps 761 mmHg 55%
    02:00 +28°C° 0 mm 2 mps 760 mmHg 55%
    03:00 +27°C° 0 mm 2 mps 760 mmHg 55%
    04:00 +27°C° 0 mm 2 mps 760 mmHg 56%
    05:00 +27°C° 0 mm 2 mps 760 mmHg 56%
    06:00 +28°C° 0 mm 2 mps 761 mmHg 53%
    07:00 +29°C° 0 mm 2 mps 761 mmHg 49%
    08:00 +30°C° 0 mm 2 mps 761 mmHg 45%
    09:00 +33°C° 0 mm 3 mps 761 mmHg 40%
    10:00 +34°C° 0 mm 3 mps 761 mmHg 36%
    11:00 +36°C° 0 mm 4 mps 761 mmHg 31%
    12:00 +36°C° 0 mm 4 mps 761 mmHg 30%
    13:00 +36°C° 0 mm 4 mps 761 mmHg 29%
    14:00 +37°C° 0 mm 5 mps 760 mmHg 29%
    15:00 +35°C° 0 mm 5 mps 760 mmHg 33%
    16:00 +34°C° 0 mm 5 mps 760 mmHg 37%
    17:00 +32°C° 0 mm 4 mps 760 mmHg 41%
    18:00 +30°C° 0 mm 4 mps 761 mmHg 45%
    19:00 +29°C° 0 mm 4 mps 761 mmHg 49%
    20:00 +28°C° 0 mm 3 mps 762 mmHg 53%
    21:00 +28°C° 0 mm 3 mps 761 mmHg 54%
    22:00 +28°C° 0 mm 2 mps 761 mmHg 55%
    23:00 +28°C° 0 mm 2 mps 761 mmHg 55%

    Day after tomorrow, 24 September, Monday

    Time Temperature Precipitation Wind Pressure Humidity
    00:00 +27°C° 0 mm 2 mps 761 mmHg 55%
    01:00 +27°C° 0 mm 2 mps 761 mmHg 55%
    02:00 +27°C° 0 mm 2 mps 761 mmHg 54%
    03:00 +26°C° 0 mm 2 mps 761 mmHg 57%
    04:00 +26°C° 0 mm 1 mps 761 mmHg 60%
    05:00 +25°C° 0 mm 1 mps 760 mmHg 63%
    06:00 +27°C° 0 mm 1 mps 761 mmHg 57%
    07:00 +28°C° 0 mm 1 mps 761 mmHg 52%
    08:00 +29°C° 0 mm 1 mps 761 mmHg 47%
    09:00 +31°C° 0 mm 1 mps 761 mmHg 42%
    10:00 +32°C° 0 mm 1 mps 761 mmHg 37%
    11:00 +35°C° 0 mm 2 mps 761 mmHg 32%
    12:00 +35°C° 0 mm 2 mps 761 mmHg 32%
    13:00 +36°C° 0 mm 3 mps 760 mmHg 31%
    14:00 +36°C° 0 mm 4 mps 760 mmHg 31%
    15:00 +35°C° 0 mm 4 mps 760 mmHg 36%
    16:00 +33°C° 0 mm 4 mps 760 mmHg 40%
    17:00 +32°C° 0 mm 4 mps 760 mmHg 45%
    18:00 +30°C° 0 mm 3 mps 760 mmHg 49%
    19:00 +29°C° 0 mm 3 mps 761 mmHg 53%
    20:00 +28°C° 0 mm 2 mps 761 mmHg 57%
    21:00 +28°C° 0 mm 2 mps 761 mmHg 59%
    22:00 +28°C° 0 mm 1 mps 761 mmHg 60%
    23:00 +27°C° 0 mm 1 mps 761 mmHg 61%

    25 September, Tuesday

    Time Temperature Precipitation Wind Pressure Humidity
    00:00 +27°C° 0 mm 1 mps 761 mmHg 60%
    01:00 +27°C° 0 mm 1 mps 761 mmHg 59%
    02:00 +27°C° 0 mm 1 mps 760 mmHg 59%
    03:00 +26°C° 0 mm 1 mps 760 mmHg 59%
    04:00 +26°C° 0 mm 1 mps 760 mmHg 59%
    05:00 +26°C° 0 mm 1 mps 760 mmHg 59%
    06:00 +27°C° 0 mm 1 mps 760 mmHg 54%
    07:00 +27°C° 0 mm 0 mps 761 mmHg 49%
    08:00 +28°C° 0 mm 0 mps 761 mmHg 44%
    09:00 +32°C° 0 mm 1 mps 761 mmHg 39%
    10:00 +33°C° 0 mm 1 mps 761 mmHg 35%
    11:00 +36°C° 0 mm 2 mps 761 mmHg 30%
    12:00 +36°C° 0 mm 2 mps 760 mmHg 30%
    13:00 +36°C° 0 mm 3 mps 760 mmHg 30%
    14:00 +37°C° 0 mm 4 mps 759 mmHg 30%
    15:00 +35°C° 0 mm 4 mps 760 mmHg 33%
    16:00 +34°C° 0 mm 4 mps 760 mmHg 37%
    17:00 +33°C° 0 mm 4 mps 760 mmHg 40%
    18:00 +32°C° 0 mm 4 mps 760 mmHg 44%
    19:00 +30°C° 0 mm 4 mps 761 mmHg 47%
    20:00 +29°C° 0 mm 3 mps 761 mmHg 51%
    21:00 +29°C° 0 mm 3 mps 761 mmHg 52%
    22:00 +29°C° 0 mm 2 mps 761 mmHg 53%
    23:00 +28°C° 0 mm 2 mps 761 mmHg 54%

    26 September, Wednesday

    Time Temperature Precipitation Wind Pressure Humidity
    00:00 +28°C° 0 mm 2 mps 761 mmHg 54%
    01:00 +28°C° 0 mm 1 mps 761 mmHg 54%
    02:00 +28°C° 0 mm 1 mps 760 mmHg 54%
    03:00 +28°C° 0 mm 1 mps 760 mmHg 54%
    04:00 +27°C° 0 mm 1 mps 760 mmHg 54%
    05:00 +27°C° 0 mm 2 mps 760 mmHg 55%
    06:00 +28°C° 0 mm 2 mps 761 mmHg 51%
    07:00 +30°C° 0 mm 2 mps 761 mmHg 47%
    08:00 +31°C° 0 mm 2 mps 761 mmHg 43%
    09:00 +32°C° 0 mm 2 mps 761 mmHg 40%
    10:00 +35°C° 0 mm 2 mps 761 mmHg 36%
    11:00 +36°C° 0 mm 3 mps 761 mmHg 33%
    12:00 +36°C° 0 mm 4 mps 760 mmHg 34%
    13:00 +36°C° 0 mm 4 mps 760 mmHg 35%
    14:00 +36°C° 0 mm 5 mps 760 mmHg 35%
    15:00 +35°C° 0 mm 5 mps 760 mmHg 40%
    16:00 +34°C° 0 mm 5 mps 760 mmHg 44%
    17:00 +32°C° 0 mm 5 mps 760 mmHg 49%
    18:00 +32°C° 0 mm 5 mps 761 mmHg 51%
    19:00 +30°C° 0 mm 4 mps 761 mmHg 54%
    20:00 +29°C° 0 mm 4 mps 762 mmHg 56%
    21:00 +30°C° 0 mm 3 mps 761 mmHg 56%
    22:00 +30°C° 0 mm 3 mps 761 mmHg 55%
    23:00 +30°C° 0 mm 2 mps 761 mmHg 55%

    27 September, Thursday

    Time Temperature Precipitation Wind Pressure Humidity
    00:00 +29°C° 0 mm 2 mps 761 mmHg 55%
    01:00 +29°C° 0 mm 3 mps 761 mmHg 54%
    02:00 +29°C° 0 mm 3 mps 760 mmHg 54%
    03:00 +29°C° 0 mm 3 mps 760 mmHg 54%
    04:00 +29°C° 0 mm 2 mps 761 mmHg 54%
    05:00 +28°C° 0 mm 2 mps 761 mmHg 53%
    06:00 +30°C° 0 mm 2 mps 761 mmHg 49%
    07:00 +31°C° 0 mm 2 mps 761 mmHg 45%
    08:00 +32°C° 0 mm 2 mps 761 mmHg 41%
    09:00 +34°C° 0 mm 2 mps 761 mmHg 38%
    10:00 +35°C° 0 mm 2 mps 761 mmHg 35%
    11:00 +37°C° 0 mm 3 mps 761 mmHg 32%
    12:00 +37°C° 0 mm 3 mps 761 mmHg 32%
    13:00 +37°C° 0 mm 4 mps 760 mmHg 33%
    14:00 +37°C° 0 mm 5 mps 760 mmHg 34%
    15:00 +36°C° 0 mm 5 mps 760 mmHg 37%
    16:00 +35°C° 0 mm 5 mps 760 mmHg 41%
    17:00 +34°C° 0 mm 5 mps 760 mmHg 44%
    18:00 +33°C° 0 mm 5 mps 761 mmHg 47%
    19:00 +32°C° 0 mm 4 mps 761 mmHg 49%
    20:00 +30°C° 0 mm 4 mps 761 mmHg 52%
    21:00 +30°C° 0 mm 4 mps 761 mmHg 54%
    22:00 +29°C° 0 mm 3 mps 761 mmHg 56%
    23:00 +29°C° 0 mm 3 mps 761 mmHg 59%
    Show more